Retour au catalogue

BREEZE-M DEB

TANK

ActifHEO
NORAD 38089·DEBRIS·🇷🇺 Russia

Lancé Feb 14, 2012 depuis Baikonur Cosmodrome

Loading…

Prochains Passages (prochaines 24 heures)

TLE

FraisSource: Space-Track

Époque: Sep 14, 2026, 14:11 UTC

1 38089U 12007C   26257.59105645  .00002665  00000-0  48066-3 0  9991
2 38089  49.5895 283.8117 4939921 196.3906 139.1029  5.71350785294158

Suivez BREEZE-M DEB en temps réel avec AllMySat

Download on the App Store